Inver Grove Heights, MN

10:03 AM CST on February 25, 2017 (GMT -0600)
South Saint Paul Municipal-Fleming

Weather History for KSGS - May, 2012

Change the Weather History Date:

Monday, May 7, 2012

  Actual Average (KSTP) Record (KSTP)
Temperature  
Mean Temperature 60 °F -  
Max Temperature 66 °F 64 °F 87 °F (2000)
Min Temperature 53 °F 44 °F 39 °F (2002)
Degree Days  
Heating Degree Days 6    
Growing Degree Days 10 (Base 50)    
Moisture  
Dew Point 45 °F    
Average Humidity 61    
Maximum Humidity 96    
Minimum Humidity 35    
Precipitation  
Precipitation 0.00 in - - ()
Sea Level Pressure  
Sea Level Pressure 29.93 in    
Wind  
Wind Speed 6 mph (WNW)    
Max Wind Speed 20 mph    
Max Gust Speed 28 mph    
Visibility 10 miles    
Events      
Averages and records for this station are not official NWS values.
T = Trace of Precipitation, MM = Missing Value Source: NWS Daily Summary

Daily Weather History Graph

Daily Weather History Graph

Search for Another Location

Airport or City:

Trip Planner

Search our weather history database for the weather conditions in past years. The results will help you decide how hot, cold, wet, or windy it might be!

Date:

Astronomy

May. 07, 2012 Rise Set
Actual Time 5:52 AM CDT 8:25 PM CDT
Civil Twilight 5:19 AM CDT 8:58 PM CDT
Nautical Twilight 4:38 AM CDT 9:40 PM CDT
Astronomical Twilight 3:50 AM CDT 10:27 PM CDT
Moon 10:42 PM CDT (5/7) 6:55 AM CDT (5/7)
Length of Visible Light 15h 39m
Length of Day
14h 32m
Waning Gibbous, 96% of the Moon is Illuminated
May 7
Waning Gibbous
May 12
Last Quarter
May 20
New
May 28
First Quarter
Jun 4
Full

Hourly Weather History & Observations

Time (CDT) Temp. Dew Point Humidity Pressure Visibility Wind Dir Wind Speed Gust Speed Precip Events Conditions
12:14 AM 58.3 °F 53.4 °F 84% 29.99 in 10.0 mi NW 3.5 mph - N/A   Overcast
12:34 AM 58.3 °F 53.6 °F 84% 29.99 in 10.0 mi Calm Calm - N/A   Overcast
12:54 AM 58.5 °F 53.6 °F 84% 29.98 in 10.0 mi Calm Calm - N/A   Overcast
1:14 AM 58.5 °F 53.8 °F 84% 29.98 in 10.0 mi Calm Calm - N/A   Overcast
1:34 AM 58.5 °F 54.1 °F 86% 29.98 in 10.0 mi Calm Calm - N/A   Overcast
1:54 AM 58.1 °F 54.0 °F 86% 29.97 in 10.0 mi Calm Calm - N/A   Mostly Cloudy
2:15 AM 57.4 °F 53.8 °F 88% 29.96 in 10.0 mi Calm Calm - N/A   Mostly Cloudy
2:34 AM 56.8 °F 53.8 °F 89% 29.96 in 10.0 mi Calm Calm - N/A   Mostly Cloudy
2:55 AM 57.0 °F 54.1 °F 90% 29.96 in 10.0 mi Calm Calm - N/A   Mostly Cloudy
3:14 AM 56.3 °F 53.6 °F 91% 29.95 in 10.0 mi Calm Calm - N/A   Scattered Clouds
3:34 AM 55.6 °F 53.6 °F 93% 29.95 in 10.0 mi Calm Calm - N/A   Clear
3:55 AM 55.8 °F 53.8 °F 93% 29.95 in 10.0 mi Calm Calm - N/A   Clear
4:14 AM 55.4 °F 53.6 °F 94% 29.94 in 7.0 mi Calm Calm - N/A   Clear
4:34 AM 53.1 °F 51.3 °F 94% 29.94 in 7.0 mi Calm Calm - N/A   Clear
4:54 AM 53.6 °F 52.2 °F 95% 29.95 in 5.0 mi Calm Calm - N/A   Clear
5:14 AM 53.1 °F 51.8 °F 95% 29.95 in 4.0 mi Calm Calm - N/A   Clear
5:35 AM 54.5 °F 53.4 °F 96% 29.95 in 7.0 mi West 6.9 mph - N/A   Clear
5:55 AM 54.3 °F 52.5 °F 94% 29.95 in 7.0 mi West 4.6 mph - N/A   Clear
6:14 AM 54.0 °F 50.9 °F 89% 29.96 in 10.0 mi WNW 4.6 mph - N/A   Clear
6:35 AM 54.1 °F 49.3 °F 84% 29.96 in 10.0 mi West 3.5 mph - N/A   Clear
6:54 AM 54.0 °F 47.3 °F 78% 29.97 in 10.0 mi NW 6.9 mph - N/A   Clear
7:14 AM 54.1 °F 45.1 °F 72% 29.97 in 10.0 mi NW 5.8 mph - N/A   Clear
7:33 AM 54.5 °F 45.1 °F 71% 29.97 in 10.0 mi WNW 8.1 mph - N/A   Clear
7:54 AM 55.0 °F 44.2 °F 67% 29.97 in 10.0 mi NW 8.1 mph - N/A   Clear
8:14 AM 56.3 °F 43.7 °F 63% 29.97 in 10.0 mi WNW 8.1 mph - N/A   Clear
8:34 AM 56.7 °F 42.8 °F 60% 29.97 in 10.0 mi WNW 10.4 mph - N/A   Clear
8:55 AM 57.4 °F 42.8 °F 58% 29.97 in 10.0 mi WNW 9.2 mph - N/A   Clear
9:14 AM 57.6 °F 42.8 °F 58% 29.96 in 10.0 mi NW 6.9 mph - N/A   Clear
9:34 AM 58.5 °F 42.8 °F 56% 29.96 in 10.0 mi WNW 9.2 mph - N/A   Clear
9:55 AM 59.0 °F 43.3 °F 56% 29.97 in 10.0 mi West 9.2 mph - N/A   Clear
10:15 AM 59.2 °F 42.6 °F 54% 29.95 in 10.0 mi WNW 5.8 mph - N/A   Clear
10:34 AM 59.9 °F 43.5 °F 55% 29.95 in 10.0 mi WNW 10.4 mph - N/A   Clear
10:55 AM 61.0 °F 41.7 °F 49% 29.94 in 10.0 mi NNW 12.7 mph 18.4 mph N/A   Clear
11:14 AM 61.7 °F 42.8 °F 50% 29.95 in 10.0 mi WNW 10.4 mph - N/A   Clear
11:35 AM 62.1 °F 43.3 °F 50% 29.94 in 10.0 mi WSW 11.5 mph - N/A   Clear
11:54 AM 62.4 °F 43.2 °F 49% 29.95 in 10.0 mi West 5.8 mph - N/A   Clear
12:14 PM 63.5 °F 40.8 °F 43% 29.94 in 10.0 mi WNW 10.4 mph 18.4 mph N/A   Clear
12:34 PM 63.7 °F 40.8 °F 43% 29.94 in 10.0 mi West 11.5 mph 18.4 mph N/A   Clear
12:54 PM 64.8 °F 42.8 °F 45% 29.93 in 10.0 mi West 13.8 mph 19.6 mph N/A   Clear
1:14 PM 63.9 °F 43.3 °F 47% 29.93 in 10.0 mi WSW 13.8 mph 18.4 mph N/A   Clear
1:34 PM 64.9 °F 43.3 °F 45% 29.93 in 10.0 mi West 16.1 mph 20.7 mph N/A   Clear
1:54 PM 65.7 °F 43.3 °F 44% 29.93 in 10.0 mi WNW 16.1 mph 20.7 mph N/A   Clear
2:15 PM 65.3 °F 44.2 °F 46% 29.93 in 10.0 mi West 17.3 mph 24.2 mph N/A   Clear
2:34 PM 64.8 °F 45.0 °F 49% 29.93 in 10.0 mi WNW 17.3 mph 23.0 mph N/A   Scattered Clouds
2:55 PM 65.3 °F 44.8 °F 47% 29.93 in 10.0 mi West 18.4 mph 25.3 mph N/A   Scattered Clouds
3:14 PM 65.8 °F 44.8 °F 47% 29.92 in 10.0 mi WNW 13.8 mph 21.9 mph N/A   Scattered Clouds
3:34 PM 65.8 °F 44.1 °F 45% 29.92 in 10.0 mi West 16.1 mph 24.2 mph N/A   Scattered Clouds
3:54 PM 66.0 °F 43.3 °F 44% 29.92 in 10.0 mi West 19.6 mph 25.3 mph N/A   Scattered Clouds
4:15 PM 66.0 °F 43.5 °F 44% 29.91 in 10.0 mi WNW 11.5 mph 25.3 mph N/A   Scattered Clouds
4:34 PM 65.7 °F 42.6 °F 43% 29.91 in 10.0 mi WNW 16.1 mph 20.7 mph N/A   Scattered Clouds
4:54 PM 66.2 °F 42.4 °F 42% 29.90 in 10.0 mi West 12.7 mph 25.3 mph N/A   Scattered Clouds
5:14 PM 66.2 °F 41.5 °F 41% 29.90 in 10.0 mi WNW 8.1 mph 17.3 mph N/A   Scattered Clouds
5:34 PM 65.3 °F 41.4 °F 42% 29.90 in 10.0 mi WNW 11.5 mph 19.6 mph N/A   Scattered Clouds
5:54 PM 66.2 °F 41.5 °F 41% 29.89 in 10.0 mi WNW 15.0 mph 25.3 mph N/A   Clear
6:15 PM 65.5 °F 39.2 °F 38% 29.89 in 10.0 mi West 11.5 mph 21.9 mph N/A   Clear
6:34 PM 65.3 °F 38.1 °F 37% 29.89 in 10.0 mi WNW 12.7 mph 19.6 mph N/A   Scattered Clouds
6:54 PM 64.2 °F 36.1 °F 35% 29.89 in 10.0 mi West 16.1 mph 27.6 mph N/A   Scattered Clouds
7:15 PM 63.9 °F 36.9 °F 37% 29.88 in 10.0 mi WNW 10.4 mph 16.1 mph N/A   Clear
7:34 PM 64.4 °F 37.4 °F 37% 29.88 in 10.0 mi WNW 9.2 mph - N/A   Clear
7:54 PM 63.9 °F 37.4 °F 38% 29.87 in 10.0 mi WNW 11.5 mph - N/A   Clear
8:14 PM 63.7 °F 37.4 °F 38% 29.88 in 10.0 mi WNW 10.4 mph 20.7 mph N/A   Scattered Clouds
8:34 PM 62.6 °F 37.9 °F 40% 29.89 in 10.0 mi WNW 10.4 mph 19.6 mph N/A   Clear
9:14 PM 61.0 °F 39.2 °F 45% 29.89 in 10.0 mi West 5.8 mph - N/A   Clear
9:34 PM 59.9 °F 38.5 °F 45% 29.89 in 10.0 mi West 6.9 mph - N/A   Clear
9:55 PM 59.4 °F 39.2 °F 47% 29.90 in 10.0 mi WNW 5.8 mph - N/A   Clear
10:15 PM 58.1 °F 39.6 °F 50% 29.89 in 10.0 mi West 4.6 mph - N/A   Clear
10:35 PM 57.2 °F 40.1 °F 53% 29.89 in 10.0 mi West 3.5 mph - N/A   Clear
10:54 PM 56.3 °F 40.8 °F 56% 29.89 in 10.0 mi West 5.8 mph - N/A   Clear
11:14 PM 55.8 °F 41.0 °F 58% 29.89 in 10.0 mi West 4.6 mph - N/A   Clear
11:34 PM 54.3 °F 41.9 °F 63% 29.89 in 10.0 mi West 5.8 mph - N/A   Clear
11:55 PM 53.8 °F 41.7 °F 64% 29.89 in 10.0 mi West 5.8 mph - N/A   Clear